Location: Hard
(49.9417°N, 12.0858°E)
Time: 04:33:54
(UTC+00:00)

Cosmos 2298 Rocket - Pass Details

Date: 07 June 2020
Orbit: 776 x 784 km, 74.0° (Epoch: 10 July)

Event Time Altitude Azimuth Distance (km) Brightness Sun altitude
Rises 00:07:50 0° 336° (NNW) 3,272 8.1 -16.2°
Reaches altitude 10° 00:10:14 10° 337° (NNW) 2,341 7.3 -16.1°
Maximum altitude 00:15:34 87° 66° (ENE) 788 4.0 -15.9°
Enters shadow 00:19:51 16° 156° (SSE) 1,933 5.6 -15.7°
